Flag for Germany Weather past 2 weeks in Gladbeck, North Rhine-Westphalia, Germany

Now
56 °F

Overcast.


Feels Like: 56 °F
Forecast: 45 / 63 °F
Wind: 2 mph from West

Location: Duesseldorf

Current Time: May 28, 2015 at 7:13:04 PM

Latest Report: May 28, 2015 at 7:00 PM


Visibility: 22 mi

Pressure: 29.94 "Hg

Humidity: 85%

Dew point: 51 °F

Location of GladbeckLocation

Historic Weather in Gladbeck — Graph

°F

Gladbeck temperature yesterday

Maximum temperature yesterday: 65 °F (at 6:00 PM)
Minimum temperature yesterday: 47 °F (at 3:00 AM)
Average temperature yesterday: 56 °F

Past Weeks' High & Low Weather Summary

 TemperatureHumidityPressure
High69 °F (May 18, 3:00 PM)99% (May 17, 2:00 AM)30.34 "Hg (May 17, 2:00 AM)
Low38 °F (May 21, 4:00 AM)36% (May 22, 4:00 PM)29.65 "Hg (May 18, 8:00 PM)
Average55 °F66%30.07 "Hg
* Reported May 13 6:00 PM — May 28 6:00 PM, Gladbeck, Weather by CustomWeather, © 2015

Note: Actual official high and low records may vary slightly from our data, if they occured in-between our weather recording intervals... More about our weather records

Advertising

Gladbeck weather history for previous 24 hours

 ConditionsComfort  
Time TempWeatherWind HumidityBarometerVisibility
6:00 PM
Thu, May 28
55 °FSprinkles. Overcast.3 mph85%29.94 "Hg6 mi
4:00 PM65 °FScattered clouds.9 mph55%29.92 "Hg25 mi
3:00 PM63 °FPartly sunny.8 mph55%29.93 "Hg31 mi
2:00 PM64 °FPartly sunny.9 mph51%29.93 "Hg31 mi
1:00 PM64 °FOvercast.9 mph48%29.93 "Hg31 mi
12:00 PM62 °FOvercast.9 mph53%29.94 "Hg28 mi
10:00 AM61 °FOvercast.7 mph56%29.96 "Hg25 mi
9:00 AM59 °FPartly sunny.7 mph63%29.96 "Hg25 mi
8:00 AM58 °FOvercast.6 mph63%29.97 "Hg22 mi
7:00 AM57 °FOvercast.6 mph63%29.97 "Hg25 mi
6:00 AM56 °FOvercast.7 mph64%29.98 "Hg25 mi
4:00 AM56 °FOvercast.6 mph62%30.00 "Hg25 mi
3:00 AM56 °FOvercast.6 mph59%30.02 "Hg25 mi
2:00 AM56 °FOvercast.7 mph57%30.03 "Hg25 mi
1:00 AM56 °FOvercast.6 mph56%30.05 "Hg25 mi
12:00 AM57 °FOvercast.7 mph54%30.06 "Hg25 mi
10:00 PM
Wed, May 27
59 °FPassing clouds.5 mph49%30.10 "Hg25 mi
9:00 PM61 °FPartly sunny.7 mph44%30.11 "Hg25 mi
8:00 PM63 °FPartly sunny.5 mph44%30.12 "Hg25 mi
7:00 PM63 °FScattered clouds.5 mph41%30.14 "Hg25 mi
Weather by CustomWeather, © 2015

See weather overviewHow to use our weather pages